Skip Page Navigation
NASA JPL Caltech
NASA Logo - Jet Propulsion Laboratory + View the NASA Portal
+ Near-Earth Object (NEO) Program
Search JPL
JPL Home Earth Solar System Stars & Galaxies Technology
JPL Solar System Dynamics
BODIES ORBITS EPHEMERIDES TOOLS PHYSICAL DATA DISCOVERY FAQ SITE MAP
JPL Small-Body Database Browser
Search: [ help ]  
269323 Madisonvillehigh (2008 SE209)
Classification: Main-belt Asteroid          SPK-ID: 2269323
Ephemeris | Orbit Diagram | Orbital Elements | Physical Parameters | Discovery Circumstances ]

[ hide orbit diagram ]
Orbit Diagram
Note: Make sure you have Java enabled on your browser to see the applet. This applet is provided as a 3D orbit visualization tool. The applet was implemented using 2-body methods, and hence should not be used for determining accurate long-term trajectories (over several years or decades) or planetary encounter circumstances. For accurate long-term ephemerides, please instead use our Horizons system.
Orbit Viewer

Additional Notes: the orbits shown in the applet are color coded. The planets are white lines, and the asteroid/comet is a blue line. The bright white line indicates the portion of the orbit that is above the ecliptic plane, and the darker portion is below the ecliptic plane. Likewise for the asteroid/comet orbit, the light blue indicates the portion above the ecliptic plane, and the dark blue the portion below the ecliptic plane.

Orbit Viewer applet originally written and kindly provided by Osamu Ajiki (AstroArts), and further modified by Ron Baalke (JPL).


Orbital Elements at Epoch 2456400.5 (2013-Apr-18.0) TDB
Reference: MPO193344 (heliocentric ecliptic J2000)
 Element Value Uncertainty (1-sigma)   Units 
e 0.0222558 n/a  
a 2.8863816 n/a AU
q 2.8221429 n/a AU
i 10.73474 n/a deg
node 1.41171 n/a deg
peri 196.80318 n/a deg
M 143.98648 n/a deg
tp 2455684.1120725
(2011-May-02.61207250)
n/a JED
period 1791.1379866
4.90
n/a
n/a
d
yr
n 0.20098954 n/a deg/d
Q 2.9506203 n/a AU
  Orbit Determination Parameters
   # obs. used (total)      47  
   first obs. used      2001-??-??  
   last obs. used      2011-03-11  
   # oppositions      5  
   planetary ephem.      DE403  
   condition code      1  
   fit RMS      0.33  
   data source      MPC:mpu  
   producer      MPCADO  

Additional Information
 T_jup = 3.266 

Ephemeris | Orbit Diagram | Orbital Elements | Physical Parameters | Discovery Circumstances ]

Physical Parameter Table
Parameter Symbol Value Units Sigma Reference Notes
absolute magnitude H 16.6 mag n/a MPO193344  

269323 Madisonvillehigh           Discovered 2008 Sept. 28 at the Astronomical Research Observatory, Charleston.
Madisonville High School, Texas, is a long-time participant in the IASC minor planet search campaigns. This minor planet was found by students and teacher Denise Rothrock at the school.
NOTE: some special characters may not display properly (any characters within {} are an attempt to place the proper accent above a character)
Reference: 20121029/MPCPages.arcLast Updated: 2013-03-29

Alternate Designations
 2008 SE209 = 2003 UO334 
Ephemeris | Orbit Diagram | Orbital Elements | Physical Parameters | Discovery Circumstances ]
ABOUT SSD CREDITS/AWARDS PRIVACY/COPYRIGHT GLOSSARY LINKS
FirstGov 2013-May-22 22:41 UT
(server date/time)  
NASA Home Page
Site Manager:   Donald K. Yeomans
Webmaster  Alan B. Chamberlin